VRG1425 SBGL-LEMD

Flight info

Callsign VRG1425
Flight time N/A
Altitude 31000
Route UKENU UN857 PUGUN/N0499F330 UN857 GUNET/N0484F350 N857 DEREV/N0475F340 N857 LZR/N0472F360 N871 KORAL UG5 SONSO DCT ADUBI N871 VJF N10 HIJ Z230 SOTUK
Aircraft MD11/H-SDE1E2E3FGHIJ2J3J4J5M1RWXY/LB1D1

Departure

Time 2026-05-04 16:08
Airport Rio Galeão – Tom Jobim International Airport (SBGL)

Arrival

Time N/A
Airport Adolfo Suárez Madrid–Barajas Airport (LEMD)
Time Latitude Longitude Altitude Speed Heading
2026-05-04 15:49 -22.82943 -43.24269 34 ft 0 kts 219°
2026-05-04 15:52 -22.82936 -43.24264 34 ft 4 kts 221°
2026-05-04 15:52 -22.82917 -43.24245 34 ft 4 kts 208°
2026-05-04 15:52 -22.82893 -43.24233 32 ft 4 kts 204°
2026-05-04 15:52 -22.82868 -43.24221 31 ft 4 kts 202°
2026-05-04 15:53 -22.82848 -43.24213 31 ft 1 kts 196°
2026-05-04 15:53 -22.82845 -43.24212 31 ft 0 kts 196°
2026-05-04 15:55 -22.82853 -43.24215 34 ft 3 kts 195°
2026-05-04 15:55 -22.82875 -43.24208 34 ft 3 kts 146°
2026-05-04 15:56 -22.82880 -43.24187 34 ft 3 kts 92°
2026-05-04 15:56 -22.82867 -43.24166 34 ft 3 kts 40°
2026-05-04 15:56 -22.82839 -43.24163 34 ft 5 kts 358°
2026-05-04 15:56 -22.82797 -43.24173 32 ft 7 kts 333°
2026-05-04 15:57 -22.82743 -43.24201 34 ft 10 kts 335°
2026-05-04 15:57 -22.82668 -43.24229 34 ft 12 kts 357°
2026-05-04 15:57 -22.82587 -43.24190 34 ft 14 kts 34°
2026-05-04 15:57 -22.82509 -43.24191 34 ft 11 kts 318°
2026-05-04 15:58 -22.82463 -43.24254 34 ft 10 kts 304°
2026-05-04 15:58 -22.82423 -43.24313 34 ft 10 kts 306°
2026-05-04 15:58 -22.82384 -43.24373 34 ft 10 kts 305°
2026-05-04 15:58 -22.82343 -43.24435 34 ft 11 kts 306°
2026-05-04 15:59 -22.82295 -43.24506 34 ft 12 kts 306°
2026-05-04 15:59 -22.82240 -43.24588 33 ft 15 kts 306°
2026-05-04 15:59 -22.82173 -43.24689 34 ft 18 kts 306°
2026-05-04 15:59 -22.82125 -43.24731 34 ft 5 kts 348°
2026-05-04 16:00 -22.82084 -43.24712 34 ft 8 kts 35°
2026-05-04 16:00 -22.82030 -43.24672 34 ft 11 kts 35°
2026-05-04 16:00 -22.81958 -43.24668 34 ft 12 kts 320°
2026-05-04 16:00 -22.81898 -43.24749 34 ft 16 kts 307°
2026-05-04 16:01 -22.81828 -43.24856 34 ft 19 kts 305°
2026-05-04 16:01 -22.81744 -43.24984 34 ft 22 kts 306°
2026-05-04 16:01 -22.81647 -43.25129 34 ft 25 kts 306°
2026-05-04 16:01 -22.81552 -43.25273 34 ft 22 kts 306°
2026-05-04 16:02 -22.81468 -43.25399 34 ft 19 kts 306°
2026-05-04 16:02 -22.81395 -43.25510 34 ft 17 kts 306°
2026-05-04 16:02 -22.81278 -43.25686 34 ft 12 kts 306°
2026-05-04 16:03 -22.81219 -43.25776 34 ft 18 kts 305°
2026-05-04 16:03 -22.81165 -43.25859 32 ft 22 kts 305°
2026-05-04 16:03 -22.81073 -43.25912 34 ft 13 kts 15°
2026-05-04 16:03 -22.80943 -43.25820 34 ft 20 kts 36°
2026-05-04 16:04 -22.80871 -43.25764 34 ft 18 kts 36°
2026-05-04 16:04 -22.80697 -43.25622 34 ft 13 kts 41°
2026-05-04 16:04 -22.80639 -43.25583 34 ft 8 kts 32°
2026-05-04 16:05 -22.80591 -43.25550 32 ft 9 kts 32°
2026-05-04 16:05 -22.80526 -43.25544 34 ft 10 kts 346°
2026-05-04 16:05 -22.80370 -43.25606 34 ft 12 kts 14°
2026-05-04 16:06 -22.80304 -43.25560 32 ft 11 kts 41°
2026-05-04 16:06 -22.80176 -43.25494 34 ft 2 kts 36°
2026-05-04 16:07 -22.80173 -43.25482 34 ft 1 kts 75°
2026-05-04 16:07 -22.80030 -43.24924 34 ft 103 kts 74°
2026-05-04 16:08 -22.79783 -43.23963 34 ft 159 kts 74°
2026-05-04 16:08 -22.78773 -43.19700 856 ft 206 kts 77°
2026-05-04 16:09 -22.78170 -43.16675 1975 ft 205 kts 77°
2026-05-04 16:09 -22.77538 -43.13643 2840 ft 207 kts 77°
2026-05-04 16:10 -22.76861 -43.10475 3344 ft 228 kts 76°
2026-05-04 16:11 -22.75699 -43.05129 3726 ft 250 kts 75°
2026-05-04 16:11 -22.75287 -43.03297 3835 ft 250 kts 72°
2026-05-04 16:12 -22.71904 -42.99507 4197 ft 244 kts
2026-05-04 16:12 -22.67035 -43.00764 4570 ft 246 kts 340°
2026-05-04 16:13 -22.63620 -43.01338 4838 ft 254 kts
2026-05-04 16:13 -22.60156 -43.00376 5096 ft 261 kts 17°
2026-05-04 16:14 -22.56697 -42.99097 5393 ft 267 kts 17°
2026-05-04 16:14 -22.53146 -42.97789 5850 ft 271 kts 17°
2026-05-04 16:15 -22.47233 -42.95928 6760 ft 313 kts 12°
2026-05-04 16:16 -22.42946 -42.94854 7945 ft 320 kts 11°
2026-05-04 16:16 -22.36326 -42.93206 9596 ft 331 kts 11°
2026-05-04 16:17 -22.31741 -42.92388 10366 ft 343 kts 356°
2026-05-04 16:18 -22.24382 -42.93478 11461 ft 363 kts 348°
2026-05-04 16:18 -22.21871 -42.93934 11933 ft 368 kts 349°
2026-05-04 16:19 -22.14204 -42.92984 13381 ft 386 kts 27°
2026-05-04 16:19 -22.10083 -42.89190 14253 ft 396 kts 47°
2026-05-04 16:20 -22.04660 -42.82312 15495 ft 406 kts 48°
2026-05-04 16:20 -22.00909 -42.77694 16277 ft 414 kts 47°
2026-05-04 16:21 -21.95078 -42.70684 17452 ft 424 kts 46°
2026-05-04 16:22 -21.91132 -42.65966 18228 ft 430 kts 46°
2026-05-04 16:22 -21.85071 -42.58725 19310 ft 437 kts 45°
2026-05-04 16:23 -21.78904 -42.51365 20327 ft 445 kts 45°
2026-05-04 16:24 -21.70514 -42.41370 21667 ft 455 kts 44°
2026-05-04 16:25 -21.66248 -42.36295 22323 ft 460 kts 44°
2026-05-04 16:26 -21.57572 -42.25989 23596 ft 469 kts 44°
2026-05-04 16:26 -21.50946 -42.18154 24372 ft 476 kts 43°
2026-05-04 16:27 -21.46473 -42.12865 24852 ft 480 kts 43°
2026-05-04 16:28 -21.39720 -42.04877 25541 ft 487 kts 43°
2026-05-04 16:28 -21.32837 -41.96746 26271 ft 494 kts 43°
2026-05-04 16:29 -21.23512 -41.85756 27142 ft 502 kts 42°
2026-05-04 16:30 -21.15160 -41.79302 27711 ft 492 kts 22°
2026-05-04 16:31 -21.09072 -41.75899 28125 ft 496 kts 21°
2026-05-04 16:31 -20.99896 -41.70596 28706 ft 503 kts 23°
2026-05-04 16:32 -20.90669 -41.65104 29298 ft 509 kts 23°
2026-05-04 16:33 -20.84509 -41.61437 29661 ft 512 kts 23°
2026-05-04 16:33 -20.78268 -41.57731 30051 ft 515 kts 23°
2026-05-04 16:34 -20.71997 -41.54012 30502 ft 515 kts 22°
2026-05-04 16:34 -20.68861 -41.52153 30735 ft 515 kts 22°
2026-05-04 16:35 -20.59433 -41.46572 31207 ft 518 kts 23°
2026-05-04 16:35 -20.49967 -41.40977 31221 ft 516 kts 22°
2026-05-04 16:36 -20.40596 -41.35443 31221 ft 516 kts 22°
2026-05-04 16:37 -20.31192 -41.29884 31210 ft 513 kts 23°
2026-05-04 16:38 -20.18722 -41.22525 31209 ft 512 kts 23°
2026-05-04 16:39 -20.03136 -41.13353 31191 ft 511 kts 23°
2026-05-04 16:40 -19.90675 -41.06030 31190 ft 512 kts 23°
2026-05-04 16:41 -19.75095 -40.96932 31165 ft 510 kts 23°
2026-05-04 16:43 -19.59538 -40.87885 31157 ft 513 kts 23°
2026-05-04 16:43 -19.50109 -40.82424 31163 ft 513 kts 23°
2026-05-04 16:45 -19.31349 -40.71586 31165 ft 513 kts 23°
2026-05-04 16:46 -19.15674 -40.62548 31166 ft 513 kts 24°
2026-05-04 16:47 -19.03139 -40.55336 31165 ft 513 kts 24°
2026-05-04 16:48 -18.90597 -40.48132 31159 ft 512 kts 24°
2026-05-04 16:49 -18.78158 -40.41009 31147 ft 512 kts 24°
2026-05-04 16:50 -18.65645 -40.33852 31154 ft 511 kts 24°
2026-05-04 16:51 -18.56268 -40.28492 31151 ft 511 kts 24°
2026-05-04 16:52 -18.43768 -40.21358 31154 ft 510 kts 24°
2026-05-04 16:53 -18.35454 -40.16620 31148 ft 510 kts 24°
2026-05-04 16:54 -18.22965 -40.09513 31144 ft 510 kts 24°
2026-05-04 16:55 -18.04224 -39.98878 31142 ft 509 kts 24°
2026-05-04 16:56 -17.88651 -39.90001 31142 ft 509 kts 25°
2026-05-04 16:57 -17.79311 -39.84667 31129 ft 509 kts 25°
2026-05-04 16:58 -17.66912 -39.77600 31141 ft 508 kts 25°
2026-05-04 17:00 -17.48269 -39.66995 31135 ft 508 kts 25°
2026-05-04 17:01 -17.32725 -39.58172 31134 ft 508 kts 25°
2026-05-04 17:02 -17.20300 -39.51141 31132 ft 507 kts 25°
2026-05-04 17:03 -17.11011 -39.45889 31125 ft 506 kts 25°
2026-05-04 17:03 -17.01727 -39.40641 31128 ft 505 kts 25°
2026-05-04 17:04 -16.89396 -39.33685 31117 ft 505 kts 25°
2026-05-04 17:05 -16.77063 -39.26733 31116 ft 504 kts 25°
2026-05-04 17:06 -16.67814 -39.21527 31109 ft 504 kts 25°
2026-05-04 17:07 -16.59599 -39.16908 31106 ft 504 kts 26°
2026-05-04 17:07 -16.52392 -39.12859 31102 ft 504 kts 26°
2026-05-04 17:08 -16.43130 -39.07691 31095 ft 503 kts 25°
2026-05-04 17:09 -16.36896 -39.04367 31102 ft 504 kts 25°
2026-05-04 17:09 -16.30642 -39.01070 31102 ft 504 kts 25°
2026-05-04 17:10 -16.15121 -38.92708 31095 ft 504 kts 26°
2026-05-04 17:11 -16.08921 -38.89289 31088 ft 504 kts 26°
2026-05-04 17:12 -15.99611 -38.84170 31089 ft 504 kts 26°
2026-05-04 17:13 -15.84100 -38.75666 31081 ft 504 kts 26°
2026-05-04 17:14 -15.71689 -38.68876 31079 ft 504 kts 26°
2026-05-04 17:15 -15.62388 -38.63790 31074 ft 504 kts 26°
2026-05-04 17:16 -15.50021 -38.57036 31072 ft 504 kts 26°
2026-05-04 17:17 -15.37613 -38.50268 31068 ft 503 kts 26°
2026-05-04 17:18 -15.25218 -38.43517 31067 ft 503 kts 26°
2026-05-04 17:19 -15.12838 -38.36783 31057 ft 501 kts 26°
2026-05-04 17:20 -15.00514 -38.30099 31059 ft 502 kts 26°
2026-05-04 17:20 -14.91198 -38.25047 31053 ft 502 kts 26°
2026-05-04 17:21 -14.78875 -38.18371 31057 ft 502 kts 26°
2026-05-04 17:22 -14.72701 -38.15029 31053 ft 500 kts 26°
2026-05-04 17:23 -14.60380 -38.08366 31048 ft 500 kts 26°
2026-05-04 17:24 -14.51138 -38.03374 31048 ft 500 kts 26°
2026-05-04 17:25 -14.38812 -37.96724 31045 ft 500 kts 26°
2026-05-04 17:26 -14.26502 -37.90091 31043 ft 498 kts 26°
2026-05-04 17:27 -14.11170 -37.81850 31042 ft 498 kts 26°
2026-05-04 17:28 -13.98871 -37.75240 31037 ft 498 kts 26°
2026-05-04 17:29 -13.80437 -37.65349 31034 ft 497 kts 26°
2026-05-04 17:31 -13.65087 -37.57127 31030 ft 498 kts 26°
2026-05-04 17:32 -13.49772 -37.48939 31031 ft 497 kts 26°
2026-05-04 17:33 -13.37487 -37.42382 31031 ft 497 kts 26°
2026-05-04 17:34 -13.25210 -37.35832 31026 ft 497 kts 26°
2026-05-04 17:35 -13.09847 -37.27646 31020 ft 498 kts 26°
2026-05-04 17:36 -13.03701 -37.24377 31020 ft 498 kts 26°
2026-05-04 17:36 -12.97551 -37.21107 31020 ft 498 kts 26°
2026-05-04 17:37 -12.91400 -37.17837 31021 ft 498 kts 26°
2026-05-04 17:37 -12.85255 -37.14571 31019 ft 498 kts 26°
2026-05-04 17:38 -12.79092 -37.11297 31015 ft 498 kts 26°
2026-05-04 17:38 -12.72934 -37.08028 31015 ft 498 kts 26°
2026-05-04 17:39 -12.63704 -37.03132 31015 ft 498 kts 26°
2026-05-04 17:39 -12.57587 -36.99890 31015 ft 498 kts 26°
2026-05-04 17:40 -12.51425 -36.96625 31015 ft 499 kts 26°
2026-05-04 17:40 -12.45265 -36.93363 31012 ft 499 kts 26°
2026-05-04 17:41 -12.39104 -36.90103 31013 ft 498 kts 26°
2026-05-04 17:41 -12.32936 -36.86842 31009 ft 498 kts 26°
2026-05-04 17:42 -12.26775 -36.83589 31007 ft 499 kts 26°
2026-05-04 17:42 -12.20612 -36.80335 31007 ft 498 kts 26°
2026-05-04 17:43 -12.14451 -36.77081 31007 ft 499 kts 26°
2026-05-04 17:43 -12.09332 -36.74379 31007 ft 499 kts 26°
2026-05-04 17:44 -12.03173 -36.71129 31000 ft 498 kts 26°
2026-05-04 17:44 -11.97020 -36.67885 31003 ft 498 kts 26°
2026-05-04 17:45 -11.90861 -36.64639 30999 ft 498 kts 26°
2026-05-04 17:45 -11.84704 -36.61395 30999 ft 498 kts 26°
2026-05-04 17:46 -11.78546 -36.58153 30999 ft 498 kts 26°
2026-05-04 17:46 -11.72385 -36.54911 30996 ft 498 kts 26°
2026-05-04 17:47 -11.66224 -36.51670 30996 ft 498 kts 26°
2026-05-04 17:47 -11.60061 -36.48431 30993 ft 498 kts 26°
2026-05-04 17:48 -11.53897 -36.45196 30993 ft 498 kts 26°
2026-05-04 17:48 -11.47725 -36.41958 30993 ft 499 kts 26°
2026-05-04 17:49 -11.41548 -36.38716 30994 ft 500 kts 26°
2026-05-04 17:49 -11.35368 -36.35473 30993 ft 500 kts 26°
2026-05-04 17:50 -11.29182 -36.32230 30993 ft 500 kts 26°
2026-05-04 17:50 -11.23003 -36.28991 30991 ft 500 kts 26°
2026-05-04 17:51 -11.16807 -36.25745 30991 ft 501 kts 26°
2026-05-04 17:51 -11.10649 -36.22418 30989 ft 501 kts 28°
2026-05-04 17:52 -11.04601 -36.18890 30994 ft 501 kts 29°
2026-05-04 17:52 -10.98573 -36.15323 30987 ft 501 kts 29°
2026-05-04 17:53 -10.92571 -36.11793 30988 ft 501 kts 29°
2026-05-04 17:53 -10.86521 -36.08249 30987 ft 502 kts 29°
2026-05-04 17:54 -10.80465 -36.04706 30989 ft 502 kts 29°
2026-05-04 17:54 -10.74416 -36.01169 30987 ft 501 kts 29°
2026-05-04 17:55 -10.68369 -35.97633 30987 ft 502 kts 29°
2026-05-04 17:55 -10.62314 -35.94095 30988 ft 502 kts 29°
2026-05-04 17:56 -10.56257 -35.90557 30985 ft 502 kts 29°
2026-05-04 17:56 -10.50206 -35.87025 30985 ft 502 kts 29°
2026-05-04 17:57 -10.44146 -35.83489 30984 ft 503 kts 29°
2026-05-04 17:57 -10.38081 -35.79952 30983 ft 503 kts 29°
2026-05-04 17:58 -10.32017 -35.76404 30983 ft 503 kts 29°
2026-05-04 17:58 -10.25958 -35.72850 30979 ft 503 kts 29°
2026-05-04 17:59 -10.19902 -35.69298 30980 ft 503 kts 29°
2026-05-04 18:00 -10.10854 -35.63996 30979 ft 503 kts 29°
2026-05-04 18:00 -10.04788 -35.60443 30983 ft 504 kts 29°
2026-05-04 18:01 -9.98720 -35.56890 30982 ft 504 kts 29°
2026-05-04 18:01 -9.92652 -35.53340 30980 ft 503 kts 29°
2026-05-04 18:02 -9.83559 -35.48022 30979 ft 503 kts 29°
2026-05-04 18:02 -9.77489 -35.44474 30979 ft 504 kts 29°
2026-05-04 18:03 -9.71416 -35.40925 30980 ft 504 kts 29°
2026-05-04 18:03 -9.65345 -35.37380 30979 ft 504 kts 29°
2026-05-04 18:04 -9.59261 -35.33833 30980 ft 504 kts 29°
2026-05-04 18:05 -9.50152 -35.28521 30977 ft 504 kts 29°
2026-05-04 18:05 -9.44079 -35.24979 30977 ft 504 kts 29°
2026-05-04 18:06 -9.34957 -35.19663 30976 ft 504 kts 29°
2026-05-04 18:06 -9.28879 -35.16121 30975 ft 504 kts 29°
2026-05-04 18:07 -9.22831 -35.12600 30974 ft 505 kts 28°
2026-05-04 18:07 -9.16693 -35.09027 30974 ft 505 kts 29°
2026-05-04 18:08 -9.10619 -35.05541 30975 ft 505 kts 26°
2026-05-04 18:08 -9.04232 -35.02596 30971 ft 504 kts 21°
2026-05-04 18:09 -8.91228 -34.97245 30970 ft 506 kts 21°
2026-05-04 18:10 -8.84732 -34.94518 30972 ft 506 kts 21°
2026-05-04 18:10 -8.78239 -34.91776 30971 ft 505 kts 21°
2026-05-04 18:11 -8.71751 -34.89038 30972 ft 506 kts 21°
2026-05-04 18:11 -8.65257 -34.86300 30966 ft 506 kts 21°
2026-05-04 18:12 -8.58756 -34.83561 30966 ft 506 kts 21°
2026-05-04 18:12 -8.52258 -34.80825 30967 ft 506 kts 21°
2026-05-04 18:13 -8.45763 -34.78090 30965 ft 506 kts 21°
2026-05-04 18:14 -8.36012 -34.73987 30959 ft 507 kts 21°
2026-05-04 18:14 -8.29495 -34.71248 30955 ft 507 kts 21°
2026-05-04 18:15 -8.16479 -34.65779 30964 ft 507 kts 21°
2026-05-04 18:16 -8.10017 -34.63027 30961 ft 507 kts 23°
2026-05-04 18:16 -8.03707 -34.59800 30961 ft 509 kts 27°
2026-05-04 18:17 -7.94388 -34.54631 30960 ft 509 kts 27°
2026-05-04 18:18 -7.85044 -34.49518 30956 ft 509 kts 27°
2026-05-04 18:18 -7.78809 -34.46130 30956 ft 510 kts 27°
2026-05-04 18:19 -7.69369 -34.41134 30954 ft 511 kts 26°
2026-05-04 18:19 -7.63043 -34.37854 30956 ft 511 kts 26°
2026-05-04 18:20 -7.56725 -34.34575 30954 ft 511 kts 26°
2026-05-04 18:20 -7.50409 -34.31291 30951 ft 511 kts 26°
2026-05-04 18:21 -7.44257 -34.28093 30950 ft 511 kts 26°
2026-05-04 18:21 -7.37974 -34.24826 30947 ft 511 kts 26°
2026-05-04 18:22 -7.31651 -34.21541 30953 ft 511 kts 26°
2026-05-04 18:22 -7.25286 -34.18234 30951 ft 511 kts 26°
2026-05-04 18:23 -7.19000 -34.14970 30944 ft 512 kts 26°
2026-05-04 18:23 -7.12666 -34.11682 30946 ft 512 kts 26°
2026-05-04 18:24 -7.06333 -34.08396 30949 ft 512 kts 26°
2026-05-04 18:24 -6.99998 -34.05110 30946 ft 512 kts 26°
2026-05-04 18:25 -6.93662 -34.01827 30946 ft 512 kts 26°
2026-05-04 18:25 -6.87326 -33.98543 30944 ft 513 kts 26°
2026-05-04 18:26 -6.80986 -33.95257 30942 ft 513 kts 26°
2026-05-04 18:26 -6.74640 -33.91969 30942 ft 512 kts 26°
2026-05-04 18:27 -6.68300 -33.88685 30943 ft 512 kts 26°
2026-05-04 18:27 -6.61962 -33.85402 30941 ft 512 kts 26°
2026-05-04 18:28 -6.55621 -33.82120 30936 ft 512 kts 26°
2026-05-04 18:28 -6.49326 -33.78862 30938 ft 512 kts 26°
2026-05-04 18:29 -6.42985 -33.75581 30938 ft 512 kts 26°
2026-05-04 18:29 -6.36646 -33.72302 30941 ft 512 kts 26°
2026-05-04 18:30 -6.27131 -33.67383 30936 ft 513 kts 26°
2026-05-04 18:31 -6.20782 -33.64103 30939 ft 513 kts 26°
2026-05-04 18:31 -6.15464 -33.61357 30938 ft 513 kts 26°
2026-05-04 18:32 -6.09119 -33.58079 30936 ft 513 kts 26°
2026-05-04 18:32 -6.02816 -33.54823 30936 ft 513 kts 26°
2026-05-04 18:33 -5.96468 -33.51545 30935 ft 513 kts 26°
2026-05-04 18:33 -5.90118 -33.48268 30936 ft 513 kts 26°
2026-05-04 18:34 -5.83775 -33.44994 30933 ft 513 kts 26°
2026-05-04 18:34 -5.77426 -33.41718 30931 ft 513 kts 26°
2026-05-04 18:35 -5.71075 -33.38442 30927 ft 513 kts 26°
2026-05-04 18:35 -5.64716 -33.35164 30926 ft 513 kts 26°
2026-05-04 18:36 -5.58359 -33.31886 30931 ft 514 kts 26°
2026-05-04 18:36 -5.52004 -33.28611 30927 ft 513 kts 26°
2026-05-04 18:37 -5.45645 -33.25336 30925 ft 513 kts 26°
2026-05-04 18:37 -5.39293 -33.22065 30923 ft 514 kts 26°
2026-05-04 18:38 -5.32931 -33.18788 30925 ft 514 kts 26°
2026-05-04 18:38 -5.26572 -33.15514 30923 ft 514 kts 26°
2026-05-04 18:39 -5.20218 -33.12242 30922 ft 513 kts 26°
2026-05-04 18:39 -5.13859 -33.08969 30925 ft 513 kts 26°
2026-05-04 18:40 -5.07513 -33.05704 30919 ft 513 kts 26°
2026-05-04 18:40 -5.01205 -33.02459 30919 ft 513 kts 26°
2026-05-04 18:41 -4.94847 -32.99189 30921 ft 513 kts 26°
2026-05-04 18:41 -4.88499 -32.95924 30926 ft 513 kts 26°
2026-05-04 18:42 -4.82144 -32.92657 30915 ft 513 kts 26°
2026-05-04 18:42 -4.75791 -32.89393 30916 ft 513 kts 27°
2026-05-04 18:43 -4.69437 -32.86129 30913 ft 513 kts 27°
2026-05-04 18:43 -4.63086 -32.82867 30915 ft 513 kts 27°
2026-05-04 18:44 -4.56733 -32.79598 30917 ft 513 kts 27°
2026-05-04 18:44 -4.50385 -32.76327 30917 ft 513 kts 27°
2026-05-04 18:45 -4.44038 -32.73056 30919 ft 512 kts 27°
2026-05-04 18:45 -4.37702 -32.69791 30917 ft 512 kts 27°
2026-05-04 18:46 -4.31364 -32.66527 30916 ft 512 kts 27°
2026-05-04 18:46 -4.25027 -32.63264 30916 ft 512 kts 27°
2026-05-04 18:47 -4.18690 -32.60001 30914 ft 512 kts 27°
2026-05-04 18:47 -4.12349 -32.56737 30929 ft 512 kts 27°
2026-05-04 18:48 -4.06017 -32.53478 30939 ft 511 kts 27°
2026-05-04 18:48 -3.99683 -32.50218 30957 ft 512 kts 27°
2026-05-04 18:49 -3.93356 -32.46963 30966 ft 512 kts 27°
2026-05-04 18:49 -3.87027 -32.43707 30969 ft 511 kts 27°
2026-05-04 18:50 -3.80716 -32.40408 30967 ft 511 kts 28°
2026-05-04 18:50 -3.74468 -32.37104 30962 ft 511 kts 28°
2026-05-04 18:51 -3.68183 -32.33780 30949 ft 511 kts 28°
2026-05-04 18:51 -3.61888 -32.30455 30938 ft 511 kts 28°
2026-05-04 18:52 -3.55592 -32.27132 30923 ft 511 kts 28°
2026-05-04 18:52 -3.49302 -32.23813 30920 ft 511 kts 28°
2026-05-04 18:53 -3.43009 -32.20493 30923 ft 511 kts 27°
2026-05-04 18:53 -3.36711 -32.17170 30923 ft 511 kts 28°
2026-05-04 18:54 -3.30415 -32.13849 30922 ft 511 kts 28°
2026-05-04 18:54 -3.24110 -32.10547 30928 ft 511 kts 27°
2026-05-04 18:55 -3.17799 -32.07280 30920 ft 510 kts 28°
2026-05-04 18:55 -3.08355 -32.02398 30917 ft 510 kts 28°
2026-05-04 18:56 -3.02094 -31.99157 30920 ft 509 kts 28°
2026-05-04 18:56 -2.95798 -31.95898 30920 ft 509 kts 28°
2026-05-04 18:57 -2.89502 -31.92640 30922 ft 509 kts 28°
2026-05-04 18:57 -2.83221 -31.89390 30925 ft 508 kts 28°
2026-05-04 18:58 -2.76940 -31.86140 30926 ft 508 kts 28°
2026-05-04 18:58 -2.70662 -31.82892 30926 ft 508 kts 28°
2026-05-04 18:59 -2.64383 -31.79644 30925 ft 508 kts 28°
2026-05-04 18:59 -2.58098 -31.76394 30927 ft 509 kts 28°
2026-05-04 19:00 -2.51817 -31.73146 30925 ft 508 kts 28°
2026-05-04 19:00 -2.45537 -31.69899 30926 ft 508 kts 28°
2026-05-04 19:01 -2.39257 -31.66653 30925 ft 508 kts 28°
2026-05-04 19:01 -2.32975 -31.63405 30924 ft 508 kts 28°
2026-05-04 19:02 -2.26699 -31.60161 30931 ft 508 kts 28°
2026-05-04 19:02 -2.20461 -31.56937 30928 ft 509 kts 28°
2026-05-04 19:03 -2.14172 -31.53687 30924 ft 509 kts 28°
2026-05-04 19:03 -2.07961 -31.50477 30923 ft 509 kts 28°
2026-05-04 19:04 -2.01667 -31.47225 30927 ft 509 kts 28°
2026-05-04 19:04 -1.95377 -31.43975 30931 ft 509 kts 28°
2026-05-04 19:05 -1.89085 -31.40725 30926 ft 508 kts 28°
2026-05-04 19:05 -1.82804 -31.37480 30925 ft 508 kts 28°
2026-05-04 19:06 -1.76522 -31.34235 30926 ft 508 kts 28°
2026-05-04 19:06 -1.70241 -31.30992 30928 ft 508 kts 28°
2026-05-04 19:07 -1.63967 -31.27752 30926 ft 508 kts 28°
2026-05-04 19:07 -1.57687 -31.24508 30925 ft 507 kts 28°
2026-05-04 19:08 -1.51422 -31.21274 30927 ft 507 kts 28°
2026-05-04 19:08 -1.45152 -31.18036 30924 ft 507 kts 28°
2026-05-04 19:09 -1.38925 -31.14821 30927 ft 507 kts 28°
2026-05-04 19:09 -1.32656 -31.11584 30927 ft 507 kts 28°
2026-05-04 19:10 -1.26393 -31.08351 30928 ft 507 kts 28°
2026-05-04 19:10 -1.20126 -31.05115 30927 ft 507 kts 28°
2026-05-04 19:11 -1.13865 -31.01883 30930 ft 507 kts 28°
2026-05-04 19:11 -1.07596 -30.98647 30930 ft 507 kts 28°
2026-05-04 19:12 -0.98198 -30.93797 30931 ft 507 kts 28°
2026-05-04 19:13 -0.91938 -30.90565 30932 ft 505 kts 28°
2026-05-04 19:13 -0.85697 -30.87339 30933 ft 505 kts 28°
2026-05-04 19:14 -0.79458 -30.84112 30932 ft 505 kts 28°
2026-05-04 19:14 -0.73216 -30.80884 30933 ft 505 kts 28°
2026-05-04 19:15 -0.66974 -30.77656 30937 ft 505 kts 28°
2026-05-04 19:15 -0.60735 -30.74431 30935 ft 504 kts 28°
2026-05-04 19:16 -0.54513 -30.71214 30937 ft 503 kts 28°
2026-05-04 19:16 -0.48294 -30.67999 30939 ft 503 kts 28°
2026-05-04 19:17 -0.42075 -30.64783 30936 ft 504 kts 28°
2026-05-04 19:17 -0.36904 -30.62110 30936 ft 504 kts 28°
2026-05-04 19:18 -0.30675 -30.58890 30935 ft 504 kts 28°
2026-05-04 19:18 -0.24450 -30.55672 30938 ft 504 kts 28°
2026-05-04 19:19 -0.18220 -30.52451 30937 ft 504 kts 28°
2026-05-04 19:19 -0.11989 -30.49230 30936 ft 504 kts 28°
2026-05-04 19:20 -0.05765 -30.46013 30938 ft 504 kts 28°
2026-05-04 19:20 0.00464 -30.42792 30936 ft 504 kts 28°
2026-05-04 19:21 0.06677 -30.39580 30937 ft 502 kts 28°